Regional Weather Roundup
Issued by NWS

Home | Current Version | Previous Version | Graphics & Text | Print | Product List | Glossary On
Versions: 1 2 3 4 5 6 7 8 9 10 11 12 13 14 15 16 17 18 19 20 21 22 23 24 25 26 27 28 29 30 31 32 33 34 35 36 37 38 39 40 41 42 43 44 45 46 47 48 49 50
000
ASUS43 KLOT 121103
RWRIL

ILLINOIS REGIONAL WEATHER ROUNDUP
NATIONAL WEATHER SERVICE CHICAGO/ROMEOVILLE IL
500 AM CST FRI FEB 12 2016

NOTE: "FAIR" INDICATES FEW OR NO CLOUDS BELOW 12,000 FEET WITH NO
SIGNIFICANT WEATHER AND/OR OBSTRUCTIONS TO VISIBILITY.

* THESE STATIONS ARE NOT UNDER NWS QUALITY CONTROL. THEY ALSO MAY NOT
  REPORT WEATHER SUCH AS PRECIPITATION OR FOG.

ILZ001-002-007-009-015-016-024-121200-
NORTHWEST ILLINOIS

CITY           SKY/WX    TMP DP  RH WIND       PRES   REMARKS
MOLINE         CLOUDY    21  16  81 W8        30.20R WCI  11
STERLING*      CLOUDY    18  10  73 W8        30.16R WCI   7
SAVANNA*       CLOUDY    19  11  70 NW6       30.19S WCI  11
$$

ILZ003-004-008-010-011-017-018-121200-
NORTH CENTRAL ILLINOIS

CITY           SKY/WX    TMP DP  RH WIND       PRES   REMARKS
ROCKFORD       CLOUDY    18   7  62 NW5       30.18R WCI  11
FREEPORT*      CLOUDY    16   8  68 W8        30.18R WCI   6
ROCHELLE*      CLOUDY    16  12  84 W5        30.17S WCI   9
DE KALB*       CLOUDY    17   9  71 W10       30.15F WCI   5
$$

ILZ005-006-012>014-019>023-121200-
NORTHEAST ILLINOIS

CITY           SKY/WX    TMP DP  RH WIND       PRES   REMARKS
CHICAGO-OHARE  CLOUDY    19   7  59 W10       30.15S WCI   7
CHICAGO-MIDWAY MOCLDY    20   7  57 SW9       30.16F WCI   9
AURORA         CLEAR     16   9  74 W6        30.16F WCI   7
LANSING*       CLOUDY    19  11  71 SW5       30.16F WCI  12
WAUKEGAN       CLOUDY    18   6  59 W9G17     30.12S WCI   7
DUPAGE AIRPORT CLOUDY    15   6  67 W6        30.14F WCI   6
WHEELING       CLOUDY    20   7  57 W8        30.16F WCI  10
MORRIS*        CLOUDY    20  14  76 W6        30.16S WCI  13
NORTHERLY ISL    N/A     21   6  52 W13         N/A  WCI   9
$$

LMZ740>746-121200-
SOUTHERN LAKE MICHIGAN

STATION/POSITION SKY/WX   TEMP    WIND        PRES    VSBY  WAVE
                          AIR SEA DIR/SP/G                  HT/PER
                          (F)     (DEG/KT/KT) (MB)    (MI)  (FT/S)
HARRISON CRIB              22     260/ 15/ 17   N/A
BURNHAM HARBOR             21     250/  9/ 13   N/A
CALUMET HARBOR             20                   N/A
BURNS HARBOR               20     220/  9/ 13 1022.0F
MICHIGAN CITY              19     190/ 12/ 13   N/A
$$

ILZ025>027-034>036-040-047-049-050-058-095>099-121200-
WEST-CENTRAL ILLINOIS

CITY           SKY/WX    TMP DP  RH WIND       PRES   REMARKS
QUINCY         CLOUDY    20  17  88 CALM      30.21R
MACOMB*        CLOUDY    21  19  93 W5        30.23S WCI  15
$$

ILZ028>032-037-038-041>044-048-051>054-059>061-121200-
CENTRAL ILLINOIS

CITY           SKY/WX    TMP DP  RH WIND       PRES   REMARKS
BLOOMINGTON    LGT SNOW  21  19  92 W5        30.19S FOG     WCI  15
DECATUR        LGT SNOW  21  17  84 SW5       30.20S FOG     WCI  15
PEORIA         CLOUDY    22  17  81 W6        30.20F WCI  14
LACON*         CLOUDY    22  15  75 W5        30.19F WCI  15
LINCOLN*       LGT SNOW  23  21  92 CALM      30.21S
SPRINGFIELD    FLURRIES  21  18  88 W5        30.21F WCI  15
TAYLORVILLE    NOT AVBL
$$

ILZ033-039-045-046-055>057-062-063-121200-
EAST-CENTRAL ILLINOIS

CITY           SKY/WX    TMP DP  RH WIND       PRES   REMARKS
CHAMPAIGN      LGT SNOW  21  16  81 SW8       30.19F WCI  11
MATTOON        LGT SNOW  20  14  77 CALM      30.19S
$$

ILZ079-100>102-121200-
SOUTHWEST ILLINOIS

CITY           SKY/WX    TMP DP  RH WIND       PRES   REMARKS
ALTON          CLOUDY    24  21  89 CALM      30.22R
BELLEVILLE     CLOUDY    25  24  95 NE2       30.20F
CAHOKIA*       CLOUDY    26  21  81 CALM      30.22S
SPARTA*        CLOUDY    26  22  84 CALM      30.22S
$$

ILZ064>066-069>071-074>076-080>082-084>086-088>090-092>094-121200-
SOUTH-CENTRAL ILLINOIS

CITY           SKY/WX    TMP DP  RH WIND       PRES   REMARKS
CARBONDALE     CLOUDY    26  22  84 NE5       30.21R WCI  20
CAIRO*         CLOUDY    29  27  90 NE5       30.21R WCI  24
MARION         FLURRIES  27  25  93 CALM      30.22S
MT. VERNON     CLOUDY    25  18  74 NE3       30.21F
CENTRALIA*     LGT RAIN  24  23  93 E3        30.20F
SALEM*         LGT SNOW  25  21  86 CALM      30.21F
$$

ILZ067-068-072-073-078-083-087-091-121200-
SOUTHEAST ILLINOIS

CITY           SKY/WX    TMP DP  RH WIND       PRES   REMARKS
LAWRENCEVILLE  CLOUDY    25  11  55 N3        30.22S
HARRISBURG*    LGT SNOW  25  24  94 NE3       30.23R
ROBINSON*      CLOUDY    23  13  64 CALM      30.23S
$$

ABBREVIATIONS USED IN REMARKS
   TC - TEMPERATURE IN CELSIUS
  WCI - WIND CHILL INDEX
   HX - HEAT INDEX
  VSB - VISIBILITY
$$




USA.gov is the U.S. government's official web portal to all federal, state and local government web resources and services.